CAPE
50 46 31 23 20 19 17 19 6 1 0 0 0 0 0 0 0 0 0 0 0 0 0 0 0 0 0 0 0 0 0 0 0 9 19 0 17 4 10 0 0 0 14 32 23 4 21 0 0 8 17 31 40 15
58 38 31 26 20 10 1 0 0 0 0 0 0 0 0 0 0 0 0 0 0 0 0 0 0 0 0 1 0 0 4 0 3 7 5 2 11 11 0 9 0 21 12 15 0 24 7 32 32 35 32 51 46 16
33 27 20 10 3 2 1 0 0 0 0 0 0 0 0 0 0 0 0 0 0 5 0 0 0 0 0 0 0 0 0 0 0 0 6 7 1 0 16 14 1 8 3 7 30 26 13 39 28 40 32 40 26 13
18 8 2 1 0 0 0 0 0 0 0 0 0 0 0 0 0 0 0 0 0 0 0 0 0 0 0 0 0 0 0 0 0 0 0 0 0 0 0 2 1 2 21 20 25 37 15 37 39 21 9 21 24 19
4 1 0 0 0 0 0 0 0 0 0 0 0 0 0 0 0 0 0 0 0 0 6 0 0 0 0 0 0 0 0 0 1 3 5 9 0 0 2 2 1 4 10 25 40 24 23 36 37 3 2 29 17 9
2 0 0 0 0 0 0 0 0 0 0 0 0 0 0 0 0 0 0 0 0 0 0 0 0 0 0 0 3 6 8 3 0 1 5 1 4 0 0 0 0 1 3 0 0 13 2 10 8 3 0 4 5 6
2 1 1 0 0 0 0 0 0 0 0 0 0 0 0 0 0 0 0 0 0 0 0 0 1 0 1 4 13 23 12 13 7 9 5 7 11 4 15 0 0 0 0 1 2 2 1 28 16 0 0 1 0 4
1 1 1 0 0 0 0 0 0 0 0 0 0 0 0 0 0 1 1 0 0 0 0 0 11 4 11 17 30 29 25 17 13 7 12 14 8 11 5 0 0 0 0 0 1 2 11 12 0 1 0 3 6 15
1 1 1 1 1 0 0 0 2 2 0 0 0 0 0 3 10 7 0 0 0 0 0 0 0 15 6 35 32 23 27 24 21 19 16 4 12 11 0 1 0 0 0 1 4 12 20 10 1 2 6 4 2 3
1 1 1 0 0 0 0 1 3 1 0 0 0 0 18 18 0 0 0 1 0 0 0 0 4 7 6 31 36 21 20 13 14 15 8 7 1 0 0 0 0 0 0 0 4 19 32 23 21 12 3 1 0 0
3 2 1 0 0 0 0 0 0 0 0 13 16 21 20 0 3 3 7 0 0 0 0 0 3 0 9 21 25 15 17 5 0 6 1 1 0 0 0 0 0 0 0 0 6 18 0 0 0 0 0 0 0 0
2 3 1 0 0 0 0 0 0 0 2 3 4 16 9 2 1 0 0 0 0 0 0 0 1 10 12 14 14 1 0 0 0 5 1 3 0 0 0 0 0 0 0 0 0 2 0 0 0 0 0 0 0 0
4 3 1 0 0 0 0 0 0 0 0 0 1 1 2 1 2 0 1 0 1 0 1 0 0 1 0 4 5 2 22 6 1 7 5 0 0 0 0 0 0 0 0 0 0 0 0 0 0 0 0 0 0 0
16 12 3 0 0 0 0 0 0 0 0 0 0 0 0 3 0 0 0 0 1 3 5 4 3 3 16 8 7 10 1 1 5 4 0 0 0 0 0 0 0 0 0 0 3 4 0 0 0 0 0 0 0 0
30 31 28 1 0 0 0 0 0 0 0 0 0 0 0 0 0 0 1 0 0 4 5 10 14 13 15 2 4 1 1 1 0 0 0 0 0 0 0 0 0 7 0 3 17 21 0 0 0 0 0 0 0 0
56 56 37 0 0 0 0 0 1 0 0 0 0 0 0 0 9 3 3 9 5 20 26 23 5 7 0 2 2 2 0 0 0 0 0 0 0 0 0 0 4 14 24 32 30 28 14 0 0 0 0 0 0 0
32 36 38 7 0 0 0 2 1 0 0 0 0 0 3 3 9 5 2 11 8 28 73 11 28 1 3 4 2 2 0 0 2 0 0 0 0 0 0 0 1 6 17 26 30 35 40 22 0 0 0 0 0 0
14 35 20 4 0 1 0 0 0 0 0 0 0 0 0 5 6 7 0 8 8 19 27 8 3 2 0 0 0 0 0 1 0 0 0 0 0 0 0 0 0 0 6 13 19 24 28 3 5 0 0 1 1 1
21 61 5 0 1 1 0 0 0 0 0 0 0 0 0 0 0 1 2 2 5 13 23 15 1 0 0 0 0 1 1 0 0 0 0 0 0 0 0 0 0 0 2 7 13 21 31 28 6 4 5 8 1 3
16 4 1 0 0 0 0 1 0 0 0 0 0 0 0 0 0 0 1 7 7 16 17 18 3 0 0 0 0 0 0 2 0 0 0 4 6 4 7 8 7 5 7 4 4 2 7 26 20 12 4 1 11 7
12 5 6 3 14 7 4 0 0 0 0 0 0 0 0 0 0 1 0 2 28 7 1 1 2 0 5 0 0 0 0 0 0 0 0 3 6 5 6 3 3 3 2 1 5 7 1 16 30 0 9 35 6 4
7 2 4 6 29 9 2 0 2 0 0 0 2 2 3 10 10 5 3 13 1 8 5 0 0 0 0 0 0 0 0 0 0 0 0 0 0 1 6 4 1 0 0 3 10 33 34 22 3 4 23 29 2 7
6 8 31 29 8 7 1 4 6 2 1 1 2 4 5 6 8 7 28 12 3 2 0 0 0 0 0 0 0 0 0 0 0 0 0 0 1 1 0 0 0 7 10 12 14 17 7 0 2 11 16 9 20 19
0 16 21 11 16 24 18 13 13 9 10 14 14 4 4 29 22 20 17 6 18 3 0 0 0 0 0 0 0 0 0 0 0 0 0 0 0 0 0 0 0 2 6 13 4 8 8 5 2 10 20 32 24 6
7 11 17 16 40 22 16 14 8 13 9 3 3 11 19 30 26 19 10 1 10 10 0 0 0 0 0 0 1 0 0 0 0 1 0 0 0 0 0 0 1 3 8 8 9 16 9 6 10 27 7 13 11 7
6 14 9 29 14 1 9 3 5 6 4 10 14 8 15 31 33 25 0 11 19 2 0 1 0 0 0 0 6 3 0 0 0 0 0 0 0 0 0 17 5 7 17 5 27 6 8 6 4 3 11 3 4 12
7 48 12 27 5 2 8 29 2 5 6 11 10 26 29 21 23 1 0 0 0 0 0 0 0 0 0 0 0 0 0 0 0 0 0 0 0 0 0 10 5 7 8 2 6 5 4 16 21 21 24 34 25 18
26 25 6 28 29 9 1 5 5 8 18 9 18 23 12 14 4 0 0 0 0 0 0 0 0 0 0 0 0 0 0 0 0 0 0 0 0 0 0 0 0 0 2 5 1 1 0 12 14 19 20 24 25 24
32 27 12 14 20 26 20 10 4 0 0 6 23 14 16 0 0 2 0 0 0 0 0 0 0 0 0 0 0 0 0 0 1 0 1 5 5 4 7 4 6 4 14 6 0 0 3 3 5 13 21 30 49 35
16 33 19 13 4 9 41 8 2 0 0 0 0 4 8 5 5 0 0 0 1 0 0 0 0 0 0 1 0 4 3 0 1 0 4 7 9 5 4 7 8 17 4 7 2 4 0 3 3 8 15 14 15 12
21 47 18 9 4 75 107 8 11 2 3 12 74 101 52 96 22 0 0 1 2 0 0 0 0 0 0 1 1 1 0 3 3 8 5 6 5 3 4 2 7 11 7 2 8 16 4 7 10 11 9 8 8 7
51 27 41 10 38 7 7 6 2 12 54 26 18 35 19 52 31 69 4 0 1 0 0 1 2 2 1 2 1 0 0 5 3 3 2 1 4 8 9 8 24 3 1 1 4 21 20 14 12 14 14 11 11 8
41 67 88 27 4 2 6 29 0 0 66 30 67 83 73 34 18 12 3 4 2 2 2 1 2 1 0 3 5 5 0 2 1 0 0 0 0 0 3 7 7 4 1 1 2 10 18 18 14 17 17 15 12 7
CIN
-0 -0 -0 -0 -0 -0 -0 -0 -0 -0 -0 -0 -0 -0 -0 -0 -0 -0 -0 -0 -0 -0 -0 -0 -0 -0 -0 -0 -0 -0 -0 -0 -0 -0 -0 -0 -0 -0 -0 -0 -0 -0 -0 -0 -0 -0 -0 -0 -0 -0 -0 -0 -0 -0
-6 -2 -0 -0 -0 -0 -0 -0 -0 -0 -0 -0 -0 -0 -0 -0 -0 -0 -0 -0 -0 -0 -0 -0 -0 -0 -0 -1 -0 -0 -0 -0 -0 -0 -0 -0 -0 -0 -0 -0 -0 -0 -0 -0 -0 -0 -0 -0 -0 -1 -0 -0 -0 -0
-0 -0 -0 -0 -0 -0 -0 -0 -0 -0 -0 -0 -0 -0 -0 -0 -0 -0 -0 -0 -0 -0 -0 -0 -0 -0 -0 -0 -0 -0 -0 -0 -0 -0 -0 -0 -0 -0 -0 -0 -0 -0 -0 -1 -2 -0 -0 -0 -0 -0 -1 -0 -0 -0
-0 -0 -0 -0 -0 -0 -0 -0 -0 -0 -0 -0 -0 -0 -0 -0 -0 -0 -0 -0 -0 -0 -0 -0 -0 -0 -0 -0 -0 -0 -0 -0 -0 -0 -0 -0 -0 -0 -0 -0 -0 -0 -0 -0 -0 -0 -4 -0 -1 -0 -0 -0 -0 -0
-0 -0 -0 -0 -0 -0 -0 -0 -0 -0 -0 -0 -0 -0 -0 -0 -0 -0 -0 -0 -0 -0 -0 -0 -0 -0 -0 -0 -0 -0 -0 -0 -0 -0 -0 -0 -0 -0 -0 -0 -0 -0 -0 -0 -0 -1 -0 -0 -0 -0 -0 -0 -0 -0
-0 -0 -0 -0 -0 -0 -0 -0 -0 -0 -0 -0 -0 -0 -0 -0 -0 -0 -0 -0 -0 -0 -0 -0 -0 -0 -0 -0 -0 -0 -0 -0 -0 -0 -0 -0 -0 -0 -0 -0 -0 -0 -0 -0 -0 -0 -0 -0 -0 -0 -0 -0 -0 -0
-0 -0 -0 -0 -0 -0 -0 -0 -0 -0 -0 -0 -0 -0 -0 -0 -0 -0 -0 -0 -0 -0 -0 -0 -0 -0 -0 -0 -0 -0 -0 -0 -0 -0 -0 -0 -0 -0 -0 -0 -0 -0 -0 -0 -0 -0 -0 -0 -1 -0 -0 -0 -0 -0
-0 -0 -0 -0 -0 -0 -0 -0 -0 -0 -0 -0 -0 -0 -0 -0 -0 -0 -0 -0 -0 -0 -0 -0 -0 -0 -0 -0 -0 -0 -0 -0 -0 -0 -0 -0 -0 -0 -0 -0 -0 -0 -0 -0 -0 -0 -0 -0 -0 -0 -0 -0 -0 -0
-0 -0 -0 -0 -0 -0 -0 -0 -0 -0 -0 -0 -0 -0 -0 -0 -0 -0 -0 -0 -0 -0 -0 -0 -0 -0 -0 -0 -0 -0 -0 -0 -0 -0 -0 -0 -0 -0 -0 -0 -0 -0 -0 -0 -0 -0 -0 -0 -0 -0 -0 -0 -0 -0
-0 -0 -0 -0 -0 -0 -0 -0 -0 -0 -0 -0 -0 -0 -0 -0 -0 -0 -0 -0 -0 -0 -0 -0 -0 -0 -0 -0 -0 -0 -0 -0 -0 -0 -0 -0 -0 -0 -0 -0 -0 -0 -0 -0 -0 -0 -0 -0 -0 -0 -0 -0 -0 -0
-0 -0 -0 -0 -0 -0 -0 -0 -0 -0 -0 -0 -0 -0 -0 -0 -0 -0 -0 -0 -0 -0 -0 -0 -0 -0 -0 -0 -0 -0 -0 -0 -0 -0 -0 -0 -0 -0 -0 -0 -0 -0 -0 -0 -0 -0 -0 -0 -0 -0 -0 -0 -0 -0
-0 -0 -0 -0 -0 -0 -0 -0 -0 -0 -0 -0 -0 -1 -0 -0 -0 -0 -0 -0 -0 -0 -0 -0 -0 -0 -0 -0 -0 -0 -0 -0 -0 -0 -0 -0 -0 -0 -0 -0 -0 -0 -0 -0 -0 -0 -0 -0 -0 -0 -0 -0 -0 -0
-0 -0 -0 -0 -0 -0 -0 -0 -0 -0 -0 -0 -0 -0 -0 -0 -0 -0 -0 -0 -0 -0 -0 -0 -0 -0 -0 -0 -0 -0 -0 -0 -0 -0 -0 -0 -0 -0 -0 -0 -0 -0 -0 -0 -0 -0 -0 -0 -0 -0 -0 -0 -0 -0
-0 -0 -0 -0 -0 -0 -0 -0 -0 -0 -0 -0 -0 -0 -0 -0 -0 -0 -0 -0 -0 -0 -0 -0 -0 -0 -0 -0 -0 -0 -0 -0 -0 -0 -0 -0 -0 -0 -0 -0 -0 -0 -0 -2 -7 -3 -0 -0 -0 -0 -0 -0 -0 -0
-0 -0 -0 -0 -0 -0 -0 -0 -0 -0 -0 -0 -0 -0 -0 -0 -0 -0 -0 -0 -0 -0 -0 -0 -0 -0 -0 -1 -0 -0 -0 -0 -0 -0 -0 -0 -0 -0 -0 -0 -0 -6 -0 -26 -15 -6 -0 -0 -0 -0 -0 -0 -0 -0
-0 -0 -1 -0 -0 -0 -0 -0 -0 -0 -0 -0 -0 -0 -0 -0 -0 -0 -0 -0 -0 -0 -0 -0 -0 -0 -0 -0 -0 -0 -0 -0 -0 -0 -0 -0 -0 -0 -0 -0 -8 -5 -5 -6 -5 -5 -3 -0 -0 -0 -0 -0 -0 -0
-3 -0 -3 -3 -0 -0 -0 -1 -0 -0 -0 -0 -0 -0 -0 -0 -0 -0 -0 -0 -0 -0 -0 -0 -0 -0 -0 -0 -0 -0 -0 -0 -0 -0 -0 -0 -0 -0 -0 -0 -2 -39 -23 -10 -5 -1 -0 -1 -0 -0 -0 -0 -0 -0
-0 -0 -0 -0 -0 -0 -0 -0 -0 -0 -0 -0 -0 -0 -0 -0 -0 -0 -0 -0 -0 -0 -0 -0 -0 -0 -0 -0 -0 -0 -0 -0 -0 -0 -0 -0 -0 -0 -0 -0 -0 -0 -1 -0 -0 -0 -0 -14 -14 -0 -0 -0 -0 -0
-0 -1 -0 -0 -0 -0 -0 -0 -0 -0 -0 -0 -0 -0 -0 -0 -0 -0 -0 -0 -0 -0 -0 -0 -0 -0 -0 -0 -0 -0 -0 -0 -0 -0 -0 -0 -0 -0 -0 -0 -0 -0 -0 -0 -0 -0 -0 -0 -0 -0 -0 -0 -0 -0
-1 -0 -1 -0 -0 -0 -0 -0 -0 -0 -0 -0 -0 -0 -0 -0 -0 -0 -0 -0 -0 -0 -0 -0 -0 -0 -0 -0 -0 -0 -0 -5 -3 -0 -0 -0 -0 -0 -0 -0 -0 -0 -0 -0 -0 -0 -0 -0 -0 -0 -0 -0 -0 -0
-0 -0 -0 -1 -0 -0 -0 -0 -0 -0 -0 -0 -0 -0 -0 -0 -0 -0 -0 -0 -0 -0 -0 -0 -0 -0 -0 -0 -0 -0 -0 -0 -0 -0 -0 -0 -0 -0 -0 -0 -0 -0 -0 -0 -0 -1 -14 -0 -0 -0 -0 -0 -0 -0
-0 -0 -0 -0 -0 -0 -0 -0 -0 -0 -0 -0 -0 -0 -0 -0 -0 -0 -0 -0 -0 -0 -0 -0 -0 -0 -0 -0 -0 -0 -0 -0 -0 -0 -0 -0 -0 -0 -0 -0 -0 -0 -0 -0 -0 -0 -0 -0 -0 -0 -0 -0 -0 -0
-0 -0 -0 -0 -0 -0 -0 -0 -0 -0 -0 -0 -0 -0 -0 -0 -0 -0 -0 -0 -0 -0 -0 -0 -0 -0 -0 -0 -0 -0 -0 -0 -0 -0 -0 -0 -0 -0 -0 -0 -0 -0 -0 -0 -0 -1 -0 -0 -0 -0 -0 -0 -0 -0
-0 -0 -0 -0 -0 -0 -0 -0 -0 -0 -0 -0 -0 -0 -0 -0 -0 -0 -0 -0 -0 -2 -0 -0 -0 -0 -0 -0 -0 -0 -0 -0 -0 -0 -0 -0 -0 -0 -0 -0 -0 -0 -0 -0 -1 -0 -0 -0 -0 -0 -0 -0 -0 -0
-8 -0 -0 -0 -0 -0 -0 -0 -0 -0 -0 -0 -0 -0 -0 -0 -0 -0 -0 -0 -0 -0 -0 -0 -0 -0 -0 -0 -0 -0 -0 -0 -0 -0 -0 -0 -0 -0 -0 -0 -0 -0 -0 -0 -0 -0 -0 -0 -0 -0 -0 -0 -0 -0
-3 -0 -2 -0 -0 -0 -0 -0 -0 -0 -0 -0 -0 -0 -0 -0 -0 -0 -0 -0 -0 -0 -0 -4 -0 -0 -0 -0 -0 -0 -0 -0 -0 -0 -0 -0 -0 -0 -0 -0 -0 -0 -0 -3 -0 -0 -0 -0 -0 -0 -0 -0 -0 -0
-0 -0 -0 -0 -0 -0 -0 -0 -0 -0 -0 -0 -0 -0 -0 -0 -0 -0 -0 -0 -0 -0 -0 -0 -0 -0 -0 -0 -0 -0 -0 -0 -0 -0 -0 -0 -0 -0 -0 -0 -0 -0 -0 -0 -0 -0 -0 -0 -0 -0 -0 -0 -0 -0
-0 -0 -0 -0 -0 -0 -0 -0 -0 -0 -0 -0 -0 -0 -0 -0 -5 -0 -0 -0 -0 -0 -0 -0 -0 -0 -0 -0 -0 -0 -0 -0 -0 -0 -0 -0 -0 -0 -0 -0 -0 -0 -0 -0 -0 -0 -0 -0 -0 -0 -0 -0 -0 -0
-0 -0 -0 -0 -0 -0 -0 -0 -0 -0 -0 -0 -0 -0 -0 -0 -0 -7 -0 -0 -0 -0 -0 -0 -0 -0 -0 -0 -0 -0 -0 -0 -0 -0 -0 -0 -0 -0 -0 -0 -0 -0 -0 -0 -0 -0 -0 -0 -0 -0 -0 -0 -0 -0
-0 -0 -0 -0 -0 -0 -0 -2 -0 -0 -0 -2 -1 -2 -10 -22 -77 -0 -0 -0 -0 -0 -0 -0 -0 -0 -0 -0 -0 -0 -0 -0 -0 -0 -0 -0 -0 -0 -0 -0 -0 -0 -0 -0 -0 -0 -0 -0 -0 -0 -0 -0 -0 -0
-0 -0 -0 -0 -0 -0 -1 -10 -0 -0 -0 -24 -13 -1 -4 -6 -47 -0 -0 -0 -0 -0 -0 -0 -0 -0 -0 -0 -0 -0 -0 -0 -0 -0 -0 -0 -0 -0 -0 -0 -0 -0 -0 -0 -0 -0 -0 -0 -0 -0 -0 -0 -0 -0
-0 -0 -0 -0 -0 -0 -0 -0 -0 -11 -5 -10 -1 -10 -16 -4 -1 -4 -0 -0 -0 -0 -0 -0 -0 -0 -0 -0 -0 -0 -0 -0 -0 -0 -0 -0 -0 -0 -0 -0 -0 -0 -0 -0 -0 -0 -0 -0 -0 -0 -0 -0 -0 -0
-0 -0 -0 -7 -0 -0 -0 -0 -0 -0 -0 -0 -1 -0 -1 -2 -2 -28 -0 -0 -0 -0 -0 -0 -0 -0 -0 -0 -0 -0 -0 -0 -0 -0 -0 -0 -0 -0 -0 -0 -0 -0 -0 -0 -0 -0 -0 -0 -0 -0 -0 -0 -0 -0
Wind_Speed
36 35 34 33 32 30 29 28 27 26 25 23 21 19 17 12 8 3 7 3 3 7 13 8 5 11 8 7 8 6 5 2 2 2 1 2 2 3 4 1 2 3 4 2 3 2 1 10 8 8 6 9 8 11
34 33 33 32 31 30 29 28 27 26 25 24 23 20 16 12 6 5 6 3 8 5 11 8 10 11 9 3 8 5 4 5 3 3 2 1 4 3 2 2 4 3 0 3 2 2 7 3 4 5 6 9 6 7
32 32 31 30 30 29 28 27 26 25 24 23 21 19 15 10 4 3 8 8 7 8 10 8 7 7 2 6 7 4 3 4 3 2 1 1 3 3 4 3 2 6 6 4 1 3 6 3 7 4 7 6 6 8
30 30 30 29 29 28 26 26 25 24 23 22 19 17 15 10 8 6 6 3 6 6 5 7 5 5 3 3 3 7 12 8 6 3 2 3 4 3 3 5 6 6 3 7 8 8 3 4 5 7 10 2 5 6
29 28 28 27 26 26 25 24 24 23 22 21 19 17 14 11 12 10 7 5 6 4 4 8 7 5 5 5 7 9 9 8 4 4 3 3 1 3 7 4 8 9 9 8 7 3 3 8 9 9 7 6 4 6
27 27 26 26 25 25 25 24 22 21 20 19 18 17 12 7 1 7 4 4 3 7 4 5 6 8 6 6 7 7 5 3 3 2 2 3 3 4 5 6 7 4 6 7 8 4 4 6 6 3 6 6 5 6
25 25 25 25 25 24 23 22 21 20 19 18 18 15 10 4 4 3 4 7 2 2 4 5 6 7 9 8 6 5 4 3 4 2 4 5 4 4 7 12 14 11 8 7 7 5 7 8 4 5 4 5 2 8
24 24 24 24 23 22 21 20 19 19 18 18 16 14 12 16 16 9 7 6 5 3 0 3 6 7 11 6 6 5 5 4 4 5 3 5 4 2 5 6 6 5 5 6 7 6 7 5 4 3 3 6 8 10
22 22 22 22 21 20 20 19 18 18 17 17 16 13 6 2 3 6 2 4 3 3 3 3 8 6 8 8 3 5 3 4 1 4 6 4 6 8 8 8 8 5 3 4 3 5 4 4 6 5 6 8 10 11
21 21 21 20 19 19 19 18 17 17 17 13 7 4 3 5 10 8 2 3 3 1 2 4 3 5 10 6 6 5 4 4 4 5 2 5 8 13 13 11 10 9 7 8 5 7 7 6 4 4 6 7 9 10
20 20 19 19 18 17 17 17 17 16 10 4 3 3 8 2 4 2 2 3 3 4 4 4 6 9 4 9 6 4 4 3 3 4 3 3 3 3 2 2 6 7 7 7 5 3 2 2 4 5 6 6 7 8
20 19 18 17 16 16 16 16 15 6 5 5 10 8 4 1 2 4 3 3 5 5 5 9 8 9 5 2 3 4 4 3 4 3 2 4 2 3 3 2 2 2 3 3 3 3 2 1 1 3 5 5 6 6
19 18 17 16 15 16 15 10 4 13 11 4 2 3 4 2 4 5 7 5 4 6 6 10 8 5 5 3 2 4 3 5 1 3 5 5 3 4 4 4 4 3 3 4 4 3 3 4 3 3 3 2 3 4
18 17 16 15 14 12 11 12 10 4 3 2 4 4 4 4 5 4 2 3 5 7 11 11 6 4 3 4 3 4 4 3 4 5 5 4 5 4 5 5 5 6 5 6 6 7 6 6 5 3 2 2 2 3
19 17 16 14 13 12 12 8 5 2 2 2 2 3 4 1 1 2 3 4 5 9 10 9 4 4 4 3 4 4 5 6 6 5 4 3 4 4 5 5 6 6 4 7 8 8 4 6 6 6 6 6 6 4
19 15 10 17 14 13 10 6 3 0 1 1 2 2 2 3 3 2 4 6 6 8 8 6 4 4 5 4 5 7 5 6 3 4 4 4 4 4 4 4 5 6 6 7 8 9 8 8 8 10 9 8 4 5
17 5 21 18 15 11 2 1 3 3 1 2 2 3 3 2 4 6 6 6 7 8 6 3 5 7 4 4 4 5 4 2 4 4 3 2 3 4 4 4 3 4 7 9 9 10 10 9 10 10 9 7 7 8
5 11 24 21 15 7 2 2 2 4 3 3 3 3 5 2 2 4 5 6 8 9 8 3 1 6 5 5 4 4 4 4 3 2 2 4 5 5 5 7 6 7 9 9 9 10 9 10 11 9 9 9 9 8
11 17 26 23 11 4 4 4 3 3 4 2 3 3 3 3 4 2 5 6 8 5 3 3 6 5 8 3 3 4 4 4 3 3 3 5 5 4 5 6 7 9 10 11 11 8 7 10 9 7 7 7 5 6
20 27 28 21 10 3 4 3 2 3 3 4 3 5 4 3 4 5 6 6 8 5 7 7 8 6 4 3 3 3 4 4 4 4 5 5 4 7 7 7 7 8 8 8 8 4 7 7 6 7 4 4 7 6
12 14 20 10 2 4 3 4 4 3 2 3 3 5 3 5 5 6 7 7 8 10 8 9 9 8 8 6 4 5 5 5 6 6 6 6 4 5 5 6 6 5 6 6 7 7 4 7 5 4 5 6 5 3
5 12 4 1 2 3 4 5 2 4 3 2 3 4 3 4 5 6 6 8 7 9 8 9 9 9 9 11 9 10 9 9 8 6 4 4 6 6 5 4 4 6 6 7 7 6 5 4 3 5 5 5 5 5
13 5 4 4 4 6 4 6 6 6 4 3 3 3 4 4 4 5 5 9 8 7 9 11 13 13 12 11 10 9 9 9 7 7 5 5 4 3 3 4 4 4 5 6 5 2 1 3 4 4 5 6 5 4
8 5 5 9 7 6 5 5 5 4 5 7 5 4 4 4 4 5 10 11 8 7 11 15 10 9 9 10 8 8 8 8 7 5 4 4 4 4 3 3 3 4 4 4 2 3 2 4 5 6 5 6 6 7
7 8 7 7 6 6 8 9 6 6 6 8 10 6 2 3 5 5 9 5 8 9 9 9 8 8 8 7 7 7 6 6 6 6 6 4 3 1 3 4 4 4 3 3 4 3 4 4 5 6 7 7 9 9
7 7 11 13 9 8 9 9 11 9 7 7 6 3 4 4 4 6 5 4 6 7 6 7 8 8 8 8 6 7 7 6 6 5 5 4 3 3 4 4 5 5 3 3 3 5 6 6 7 10 8 10 10 8
9 8 7 5 8 8 6 7 7 9 9 9 5 6 5 6 7 5 3 4 5 4 4 5 7 7 6 7 5 5 6 7 5 3 3 3 2 3 4 4 7 6 2 4 5 6 8 8 8 8 8 6 7 8
7 8 12 12 10 8 9 10 10 11 9 5 6 10 7 7 5 1 2 1 2 3 3 3 4 4 5 7 7 7 6 5 4 3 1 3 4 3 4 4 4 0 3 2 6 7 7 7 7 8 9 9 8 7
6 9 12 15 11 7 8 10 9 8 8 8 7 9 5 4 0 2 2 3 3 4 5 6 3 3 5 5 4 5 5 5 5 5 5 4 3 4 3 2 3 4 4 5 6 7 8 8 8 7 8 7 6 6
9 11 8 13 9 10 7 7 8 5 6 7 6 3 3 2 2 1 3 4 5 5 5 5 5 5 5 6 5 4 3 3 3 4 4 4 2 3 1 1 3 3 4 5 6 5 4 5 3 4 6 6 7 7
10 8 7 8 9 7 4 5 2 3 4 6 3 4 5 1 2 4 6 5 4 5 5 5 5 6 6 7 7 7 6 5 4 4 3 2 3 3 4 4 4 4 5 6 6 6 7 8 8 9 10 11 11 10
9 12 10 8 7 5 4 6 7 6 6 6 6 4 3 4 5 5 5 7 6 7 9 7 7 7 9 6 5 4 4 6 6 5 6 3 3 3 4 5 5 6 7 8 8 7 9 11 9 10 10 12 12 12
6 9 10 5 6 9 6 6 8 6 5 6 5 6 5 4 8 3 3 6 6 5 6 6 5 4 8 8 7 6 6 5 5 4 3 3 5 5 5 5 5 6 8 8 9 8 10 12 10 10 10 9 10 10
Wind_Direction
110 113 114 118 121 125 128 130 130 130 134 134 131 134 137 143 138 155 98 14 135 129 135 114 139 146 154 170 166 145 177 235 139 82 298 96 294 84 241 79 345 305 310 63 277 284 183 -0 346 9 315 321 341 347
111 112 113 114 117 117 117 117 119 120 121 123 124 125 127 119 118 197 104 87 101 98 127 111 49 29 358 34 118 170 52 141 156 106 218 227 204 166 281 293 202 250 274 322 269 352 243 298 310 309 298 302 333 336
107 109 110 110 109 110 109 110 113 113 111 111 111 111 106 101 91 225 130 145 105 117 119 148 135 106 21 44 1 168 100 115 125 139 132 4 250 292 243 270 230 226 166 253 245 211 264 319 268 297 318 296 339 334
107 107 107 107 106 106 110 109 106 103 100 98 98 99 101 93 91 142 127 157 136 136 122 108 121 130 96 130 51 60 112 103 136 155 182 223 250 194 280 323 276 279 191 257 280 258 214 243 350 358 314 311 283 286
107 107 107 108 109 109 106 103 101 101 101 102 105 110 111 106 101 104 91 57 19 109 118 121 137 134 135 152 131 133 142 160 166 167 202 233 283 262 250 253 257 239 233 240 259 309 317 309 350 328 290 298 319 312
109 109 110 109 108 106 103 103 104 103 101 103 104 105 93 62 245 128 67 76 9 113 104 146 82 157 166 188 172 175 168 212 195 259 236 224 99 272 280 267 287 313 276 270 283 351 288 305 301 310 304 327 314 303
111 111 109 107 106 104 105 105 105 107 109 106 105 102 81 2 36 51 69 89 59 256 96 122 137 165 177 177 182 192 195 206 286 198 247 263 258 204 269 270 281 283 269 256 264 273 271 271 352 345 302 319 266 280
113 111 109 107 105 107 108 109 111 112 112 111 109 110 102 105 129 97 68 35 296 105 88 144 105 156 183 183 179 193 201 205 211 248 213 261 265 218 265 287 304 297 292 281 262 245 263 329 286 264 279 299 305 311
114 111 110 109 112 114 115 115 117 118 121 126 134 153 133 77 74 87 134 280 44 51 131 184 162 158 171 209 119 186 216 219 104 250 241 251 211 222 244 285 308 337 288 272 260 248 254 250 299 305 330 334 334 330
118 117 118 118 118 118 119 120 122 126 131 154 200 98 64 58 126 161 90 52 22 101 187 230 97 138 194 162 189 151 195 237 210 193 190 242 257 263 270 278 288 272 259 276 256 249 234 248 284 333 328 343 335 337
127 127 125 123 120 119 122 124 132 136 175 205 83 59 102 187 210 79 110 142 161 195 202 171 183 148 183 187 162 185 188 190 242 128 254 253 242 214 113 293 292 282 236 250 264 339 350 324 326 331 337 342 338 342
135 134 133 129 124 123 130 136 152 210 35 59 97 125 138 166 97 129 162 172 221 189 163 172 167 141 143 222 153 182 202 187 228 89 253 260 208 133 163 224 212 211 212 219 224 211 183 234 330 331 327 334 345 340
141 140 138 134 129 130 140 144 114 115 168 152 97 110 146 136 155 196 179 198 180 170 172 145 147 132 154 218 111 183 190 206 100 212 225 227 133 171 191 171 188 189 197 212 213 210 215 214 197 256 306 325 301 334
147 147 144 140 133 129 132 138 142 143 246 143 134 127 211 161 233 199 232 138 99 154 161 167 146 151 113 183 169 168 193 184 220 219 224 198 187 180 195 187 205 205 211 235 231 230 226 230 220 167 137 165 205 253
152 152 145 138 130 127 129 143 213 235 38 114 120 178 198 40 77 120 80 113 146 154 150 149 147 155 157 135 213 186 190 228 217 221 152 150 131 188 204 196 215 231 201 218 245 248 173 169 199 211 208 216 240 180
148 137 160 143 141 137 146 174 171 259 121 167 175 180 206 187 152 169 197 140 170 151 156 191 157 164 196 189 186 208 213 221 206 196 130 158 201 209 214 214 231 241 244 237 241 248 217 204 217 229 210 231 156 215
158 161 151 149 143 150 248 242 167 193 246 180 187 245 232 263 187 188 196 166 179 172 193 167 179 192 157 204 221 202 218 217 120 149 162 188 235 239 227 249 225 236 250 257 263 259 254 234 209 230 226 224 218 237
174 152 149 145 150 139 141 280 210 186 189 204 214 200 212 258 181 173 202 176 185 197 208 234 224 207 208 206 196 199 192 170 179 191 215 256 272 262 256 259 252 250 258 263 265 267 254 237 229 229 229 231 236 236
169 153 151 152 160 155 163 174 254 214 207 186 218 206 207 224 234 272 201 198 212 227 211 204 237 229 225 210 213 175 181 192 198 213 230 263 274 272 251 255 277 278 277 280 282 278 262 242 238 240 229 228 231 247
158 156 156 160 192 163 166 137 230 232 204 199 209 206 203 212 202 196 216 201 201 202 214 224 230 227 236 241 242 221 207 192 212 245 262 251 214 225 254 274 279 286 288 287 283 273 276 256 236 231 220 203 228 242
149 156 147 126 177 251 218 155 185 209 203 217 201 201 209 203 211 205 209 209 215 217 228 231 237 246 262 273 230 235 244 238 248 264 273 274 277 276 284 286 286 286 284 286 292 289 214 262 253 171 215 222 227 242
103 106 103 45 143 201 229 185 183 141 207 224 192 207 206 208 217 212 214 204 234 229 232 237 236 238 243 239 232 244 252 260 259 263 263 250 259 256 255 279 299 291 292 291 284 283 262 242 198 189 196 160 212 207
123 127 116 154 163 195 177 168 181 173 176 213 208 214 215 210 219 182 207 220 240 225 225 230 239 242 247 254 256 255 247 250 241 241 231 234 240 244 256 272 277 280 282 289 289 284 199 227 190 173 168 176 196 193
136 140 168 171 190 170 161 174 199 196 208 204 205 228 236 212 165 226 239 240 231 210 225 231 232 232 230 227 238 234 226 220 229 221 202 210 221 237 247 276 286 280 279 284 272 260 187 177 172 186 176 190 200 213
151 168 193 180 181 152 162 162 182 205 201 207 230 234 209 179 221 235 238 241 217 222 229 228 221 225 228 216 218 222 190 196 201 193 181 206 213 235 262 257 260 273 281 253 252 217 189 181 189 192 194 208 214 219
194 171 199 176 152 172 168 171 185 192 195 201 221 222 207 220 244 244 245 221 234 225 207 218 214 212 213 217 191 190 182 182 182 190 171 184 205 224 254 270 279 279 231 204 196 208 211 200 205 210 213 219 222 219
205 181 186 174 165 173 162 184 177 183 196 200 190 174 188 226 235 238 245 214 234 211 185 191 208 210 199 184 183 150 149 166 174 148 110 158 212 254 261 253 267 283 289 198 223 220 222 209 208 207 211 207 214 215
191 169 164 165 169 179 175 173 183 193 196 201 184 194 206 211 238 211 233 143 174 159 157 161 185 177 166 151 149 143 138 117 109 127 166 233 234 236 242 258 275 196 280 212 219 225 222 213 208 206 207 213 209 196
172 163 150 169 167 181 192 190 193 198 199 188 203 202 218 223 249 246 184 182 177 179 166 157 144 113 112 113 129 150 140 160 165 177 224 247 249 240 207 226 264 263 252 248 211 226 225 217 210 206 209 212 207 182
164 160 162 173 186 191 184 188 201 191 193 208 220 230 227 220 202 201 193 188 196 199 196 181 160 164 166 165 169 176 175 183 183 189 224 244 255 80 154 243 262 257 255 246 246 224 201 202 177 192 198 196 195 193
156 165 155 174 198 184 156 155 105 134 177 198 195 222 249 329 257 217 216 211 191 179 169 180 185 192 184 186 187 185 201 194 197 190 207 226 242 259 271 275 271 257 248 243 238 225 218 214 210 209 211 209 210 210
157 182 166 173 174 129 144 184 176 193 184 195 193 192 164 204 232 196 195 170 189 210 217 201 197 208 202 191 171 133 103 137 157 171 184 213 240 261 275 277 272 263 260 254 245 233 226 220 222 219 219 216 215 208
175 181 189 140 139 168 177 178 189 199 194 210 211 193 204 220 243 206 175 204 210 224 217 206 195 176 172 167 161 143 139 140 137 151 187 233 260 269 277 273 273 266 260 258 255 246 237 226 226 228 220 215 205 200